Location: Ar Ranvel
(48.3000°N, 4.8833°W)
Time: 21:23:01
(UTC+00:00)

Meteor 2-10 Rocket - Pass Details

Date: 31 October 2021
Orbit: 733 x 885 km, 81.2° (Epoch: 30 November)

Event Time Altitude Azimuth Distance (km) Brightness Sun altitude
Rises 04:55:16 0° 347° (NNW) 3,184 6.6 -21.8°
Reaches altitude 10° 04:57:37 10° 347° (NNW) 2,250 5.8 -21.4°
Maximum altitude 05:02:39 84° 260° (W) 745 3.3 -20.6°
Drops below altitude 10° 05:07:40 10° 173° (S) 2,246 6.0 -19.7°
Sets 05:10:00 0° 172° (S) 3,177 6.8 -19.3°
